• In Belarus
  • List of Countries
  • For 7 days
  • Water Temperature
  • Satellite Maps
  • Weather Map
  • Weather Widgets
  • user-avatar
    Login

    Hourly Weather Mohale's Hoek

    Today, 17 October, Wednesday

    Time Temperature Precipitation Wind Pressure Humidity
    00:00 +16°C° 0 mm 1 mps 632 mmHg 41%
    01:00 +15°C° 0 mm 1 mps 631 mmHg 44%
    02:00 +15°C° 0 mm 1 mps 631 mmHg 47%
    03:00 +15°C° 0 mm 1 mps 631 mmHg 49%
    04:00 +14°C° 0 mm 1 mps 631 mmHg 52%
    05:00 +14°C° 0 mm 1 mps 631 mmHg 55%
    06:00 +15°C° 0 mm 1 mps 631 mmHg 52%
    07:00 +15°C° 0 mm 1 mps 631 mmHg 50%
    08:00 +16°C° 0 mm 1 mps 632 mmHg 48%
    09:00 +17°C° 0 mm 2 mps 632 mmHg 43%
    10:00 +18°C° 0 mm 2 mps 632 mmHg 39%
    11:00 +20°C° 0 mm 3 mps 632 mmHg 34%
    12:00 +20°C° 0.1 mm 4 mps 632 mmHg 34%
    13:00 +20°C° 0.1 mm 5 mps 632 mmHg 35%
    14:00 +21°C° 0.1 mm 6 mps 632 mmHg 35%
    15:00 +20°C° 0.1 mm 6 mps 632 mmHg 37%
    16:00 +19°C° 0.1 mm 6 mps 632 mmHg 39%
    17:00 +19°C° 0.1 mm 6 mps 631 mmHg 42%
    18:00 +16°C° 0 mm 5 mps 632 mmHg 47%
    19:00 +15°C° 0 mm 4 mps 632 mmHg 52%
    20:00 +14°C° 0 mm 3 mps 632 mmHg 57%
    21:00 +14°C° 0 mm 2 mps 632 mmHg 59%
    22:00 +13°C° 0 mm 2 mps 632 mmHg 62%
    23:00 +13°C° 0 mm 2 mps 632 mmHg 65%

    Tomorrow, 18 October, Thursday

    Time Temperature Precipitation Wind Pressure Humidity
    00:00 +12°C° 0 mm 1 mps 632 mmHg 67%
    01:00 +12°C° 0 mm 1 mps 631 mmHg 69%
    02:00 +11°C° 0 mm 1 mps 631 mmHg 72%
    03:00 +11°C° 0 mm 1 mps 631 mmHg 74%
    04:00 +10°C° 0 mm 1 mps 630 mmHg 76%
    05:00 +10°C° 0 mm 1 mps 630 mmHg 78%
    06:00 +11°C° 0 mm 1 mps 631 mmHg 69%
    07:00 +13°C° 0 mm 1 mps 631 mmHg 60%
    08:00 +14°C° 0 mm 0 mps 632 mmHg 52%
    09:00 +18°C° 0 mm 1 mps 632 mmHg 42%
    10:00 +19°C° 0 mm 1 mps 632 mmHg 32%
    11:00 +20°C° 0 mm 2 mps 633 mmHg 22%
    12:00 +23°C° 0 mm 2 mps 632 mmHg 19%
    13:00 +24°C° 0 mm 3 mps 632 mmHg 17%
    14:00 +25°C° 0 mm 4 mps 632 mmHg 14%
    15:00 +25°C° 0 mm 4 mps 632 mmHg 14%
    16:00 +25°C° 0 mm 4 mps 631 mmHg 14%
    17:00 +23°C° 0 mm 4 mps 631 mmHg 13%
    18:00 +22°C° 0 mm 3 mps 631 mmHg 16%
    19:00 +20°C° 0 mm 2 mps 631 mmHg 19%
    20:00 +19°C° 0 mm 1 mps 631 mmHg 22%
    21:00 +19°C° 0 mm 1 mps 631 mmHg 22%
    22:00 +18°C° 0 mm 1 mps 631 mmHg 23%
    23:00 +18°C° 0 mm 1 mps 631 mmHg 24%

    Day after tomorrow, 19 October, Friday

    Time Temperature Precipitation Wind Pressure Humidity
    00:00 +16°C° 0 mm 1 mps 631 mmHg 24%
    01:00 +16°C° 0 mm 1 mps 630 mmHg 23%
    02:00 +16°C° 0 mm 1 mps 630 mmHg 23%
    03:00 +15°C° 0 mm 1 mps 630 mmHg 23%
    04:00 +15°C° 0 mm 1 mps 630 mmHg 24%
    05:00 +15°C° 0 mm 1 mps 630 mmHg 24%
    06:00 +18°C° 0 mm 1 mps 631 mmHg 22%
    07:00 +20°C° 0 mm 1 mps 632 mmHg 19%
    08:00 +23°C° 0 mm 1 mps 633 mmHg 17%
    09:00 +24°C° 0 mm 2 mps 633 mmHg 17%
    10:00 +25°C° 0 mm 2 mps 633 mmHg 17%
    11:00 +27°C° 0 mm 3 mps 633 mmHg 16%
    12:00 +28°C° 0 mm 4 mps 633 mmHg 16%
    13:00 +29°C° 0 mm 5 mps 633 mmHg 15%
    14:00 +30°C° 0 mm 6 mps 633 mmHg 14%
    15:00 +30°C° 0 mm 6 mps 633 mmHg 13%
    16:00 +29°C° 0 mm 6 mps 633 mmHg 13%
    17:00 +29°C° 0 mm 7 mps 633 mmHg 12%
    18:00 +27°C° 0 mm 5 mps 633 mmHg 16%
    19:00 +25°C° 0 mm 4 mps 633 mmHg 20%
    20:00 +23°C° 0 mm 2 mps 633 mmHg 24%
    21:00 +21°C° 0 mm 2 mps 633 mmHg 31%
    22:00 +19°C° 0 mm 2 mps 633 mmHg 38%
    23:00 +18°C° 0 mm 2 mps 633 mmHg 45%

    20 October, Saturday

    Time Temperature Precipitation Wind Pressure Humidity
    00:00 +18°C° 0 mm 3 mps 632 mmHg 51%
    01:00 +17°C° 0 mm 3 mps 632 mmHg 56%
    02:00 +17°C° 0 mm 3 mps 632 mmHg 61%
    03:00 +17°C° 0 mm 3 mps 632 mmHg 63%
    04:00 +16°C° 0 mm 3 mps 633 mmHg 65%
    05:00 +16°C° 0 mm 3 mps 633 mmHg 67%
    06:00 +16°C° 0 mm 3 mps 634 mmHg 63%
    07:00 +17°C° 0 mm 4 mps 634 mmHg 60%
    08:00 +17°C° 0 mm 4 mps 635 mmHg 57%
    09:00 +18°C° 0 mm 4 mps 636 mmHg 52%
    10:00 +19°C° 0 mm 5 mps 636 mmHg 46%
    11:00 +20°C° 0 mm 5 mps 637 mmHg 41%
    12:00 +21°C° 0 mm 6 mps 636 mmHg 36%
    13:00 +21°C° 0 mm 6 mps 636 mmHg 31%
    14:00 +22°C° 0 mm 7 mps 636 mmHg 26%
    15:00 +21°C° 0 mm 7 mps 636 mmHg 24%
    16:00 +20°C° 0 mm 7 mps 636 mmHg 23%
    17:00 +20°C° 0 mm 7 mps 636 mmHg 21%
    18:00 +17°C° 0 mm 6 mps 636 mmHg 26%
    19:00 +15°C° 0 mm 5 mps 637 mmHg 30%
    20:00 +13°C° 0 mm 4 mps 637 mmHg 34%
    21:00 +12°C° 0 mm 4 mps 637 mmHg 40%
    22:00 +11°C° 0 mm 4 mps 637 mmHg 46%
    23:00 +10°C° 0 mm 4 mps 637 mmHg 51%

    21 October, Sunday

    Time Temperature Precipitation Wind Pressure Humidity
    00:00 +8°C° 0 mm 4 mps 637 mmHg 54%
    01:00 +7°C° 0 mm 4 mps 636 mmHg 56%
    02:00 +7°C° 0 mm 3 mps 636 mmHg 59%
    03:00 +5°C° 0 mm 3 mps 636 mmHg 58%
    04:00 +5°C° 0 mm 3 mps 636 mmHg 58%
    05:00 +4°C° 0 mm 3 mps 637 mmHg 58%
    06:00 +7°C° 0 mm 3 mps 637 mmHg 47%
    07:00 +9°C° 0 mm 3 mps 638 mmHg 37%
    08:00 +10°C° 0 mm 3 mps 638 mmHg 26%
    09:00 +13°C° 0 mm 3 mps 639 mmHg 21%
    10:00 +16°C° 0 mm 3 mps 639 mmHg 15%
    11:00 +18°C° 0 mm 3 mps 639 mmHg 9%
    12:00 +19°C° 0 mm 3 mps 639 mmHg 8%
    13:00 +20°C° 0 mm 3 mps 638 mmHg 8%
    14:00 +21°C° 0 mm 3 mps 638 mmHg 7%
    15:00 +21°C° 0 mm 3 mps 638 mmHg 8%
    16:00 +21°C° 0 mm 3 mps 638 mmHg 9%
    17:00 +20°C° 0 mm 3 mps 637 mmHg 10%
    18:00 +19°C° 0 mm 3 mps 637 mmHg 14%
    19:00 +17°C° 0 mm 3 mps 637 mmHg 18%
    20:00 +14°C° 0 mm 3 mps 637 mmHg 21%
    21:00 +14°C° 0 mm 2 mps 637 mmHg 25%
    22:00 +13°C° 0 mm 2 mps 637 mmHg 29%
    23:00 +12°C° 0 mm 2 mps 636 mmHg 33%

    22 October, Monday

    Time Temperature Precipitation Wind Pressure Humidity
    00:00 +11°C° 0 mm 1 mps 636 mmHg 36%
    01:00 +11°C° 0 mm 1 mps 636 mmHg 39%
    02:00 +11°C° 0 mm 1 mps 636 mmHg 42%
    03:00 +10°C° 0 mm 1 mps 636 mmHg 44%
    04:00 +10°C° 0 mm 1 mps 636 mmHg 45%
    05:00 +8°C° 0 mm 0 mps 635 mmHg 47%
    06:00 +10°C° 0 mm 0 mps 636 mmHg 42%
    07:00 +12°C° 0 mm 1 mps 636 mmHg 37%
    08:00 +14°C° 0 mm 1 mps 637 mmHg 32%
    09:00 +16°C° 0 mm 1 mps 637 mmHg 28%
    10:00 +19°C° 0 mm 1 mps 637 mmHg 23%
    11:00 +20°C° 0 mm 1 mps 637 mmHg 19%
    12:00 +21°C° 0 mm 1 mps 637 mmHg 17%
    13:00 +22°C° 0 mm 1 mps 636 mmHg 15%
    14:00 +23°C° 0 mm 2 mps 636 mmHg 14%
    15:00 +23°C° 0 mm 2 mps 636 mmHg 13%
    16:00 +23°C° 0 mm 2 mps 635 mmHg 13%
    17:00 +23°C° 0 mm 2 mps 635 mmHg 13%
    18:00 +21°C° 0 mm 2 mps 635 mmHg 14%
    19:00 +20°C° 0 mm 2 mps 635 mmHg 15%
    20:00 +18°C° 0 mm 2 mps 635 mmHg 17%
    21:00 +18°C° 0 mm 2 mps 635 mmHg 18%
    22:00 +17°C° 0 mm 2 mps 635 mmHg 19%
    23:00 +16°C° 0 mm 3 mps 635 mmHg 20%
    Show more